This demonstration page uses our WeatherBlox Daily Observations layout. Learn more.

Left ArrowRight Arrow

44.8408, -93.29828

Hourly Observations for March 10, 2018

Temp ( °F °C ) Dew Point ( °F °C ) Humidity (%) Winds ( mph kmh ) Pressure ( in mb ) Visibility ( mi km ) Precip ( " mm )
12:53 am 00:53 Cloudy 25 -3.9 16 -8.9 69 69 ESE 7 11 30.04 1017 10 16 0.00 0.00
1:53 am 01:53 Cloudy 24 -4.4 16 -8.9 71 71 SE 7 11 30.04 1017 9 14 0.00 0.00
2:53 am 02:53 Cloudy 24 -4.4 17 -8.3 75 75 ESE 7 11 30.03 1017 9 14 0.00 0.00
3:53 am 03:53 Cloudy 25 -3.9 17 -8.3 72 72 ESE 7 11 30.02 1017 9 14 0.00 0.00
4:53 am 04:53 Cloudy 25 -3.9 17 -8.3 72 72 ESE 6 9 30.03 1017 9 14 0.00 0.00
5:53 am 05:53 Cloudy 25 -3.9 17 -8.3 72 72 ESE 9 15 30.03 1017 10 16 0.00 0.00
6:53 am 06:53 Cloudy 25 -3.9 17 -8.3 72 72 SE 5 7 30.06 1018 9 14 0.00 0.00
7:53 am 07:53 Cloudy 26 -3.3 17 -8.3 69 69 ESE 7 11 30.07 1018 10 16 0.00 0.00
8:53 am 08:53 Cloudy 27 -2.8 17 -8.3 66 66 SE 8 13 30.09 1019 10 16 0.00 0.00
9:53 am 09:53 Cloudy 29 -1.7 18 -7.8 63 63 SE 8 13 30.09 1019 10 16 0.00 0.00
10:53 am 10:53 Cloudy 30 -1.1 19 -7.2 64 64 ESE 8 13 30.09 1019 10 16 0.00 0.00
11:53 am 11:53 Cloudy 31 -0.6 21 -6.1 67 67 SE 9 15 30.10 1019 10 16 0.00 0.00
12:53 pm 12:53 Cloudy 32 0 22 -5.6 66 66 SSE 8 13 30.09 1019 10 16 0.00 0.00
1:53 pm 13:53 Cloudy 34 1.1 24 -4.4 67 67 SE 9 15 30.08 1019 10 16 0.00 0.00
2:53 pm 14:53 Cloudy 34 1.1 24 -4.4 67 67 SE 10 17 30.08 1019 10 16 0.00 0.00
3:53 pm 15:53 Cloudy 34 1.1 25 -3.9 70 70 SE 7 11 30.09 1019 10 16 0.00 0.00
4:53 pm 16:53 Cloudy 35 1.7 24 -4.4 64 64 SE 9 15 30.09 1019 10 16 0.00 0.00
5:53 pm 17:53 Cloudy 35 1.7 24 -4.4 64 64 SE 9 15 30.10 1019 10 16 0.00 0.00
6:53 pm 18:53 Cloudy 34 1.1 23 -5 64 64 SE 6 9 30.11 1020 10 16 0.00 0.00
7:53 pm 19:53 Cloudy 34 1.1 23 -5 64 64 SE 6 9 30.13 1020 10 16 0.00 0.00
8:53 pm 20:53 Cloudy 35 1.7 22 -5.6 59 59 SE 6 9 30.15 1021 10 16 0.00 0.00
9:53 pm 21:53 Cloudy 33 0.6 23 -5 66 66 SSE 5 7 30.16 1021 10 16 0.00 0.00
10:53 pm 22:53 Cloudy 34 1.1 23 -5 64 64 SSW 5 7 30.16 1022 10 16 0.00 0.00
11:53 pm 23:53 Cloudy with Light Snow 32 0 28 -2.2 85 85 Calm 30.19 1022 4 6 0.00 0.03

Powered by AerisWeather